User: anonymous   Login
Location: Long Geng
(2.6167°N, 114.1333°E)
Time: 18:12:22
(UTC+00:00)
Language:

Aureole 1 Rocket - Orbit

View from above orbital plane
View from above orbital plane
View from above satellite
View from above satellite

Ground track
Ground track

The orbit data is extracted from the following two-line orbital elements,

1  5730U 71119B   21211.14928181  .00001007  00000-0  66789-4 0  9993
2  5730  73.8947 352.0210 0685471 297.1079  56.1729 14.05528085416698
Epoch (UTC): 30 July 2021 03:34:57
Eccentricity: 0.0685471
inclination: 73.8947°
perigee height: 377 km
apogee height: 1372 km
right ascension of ascending node: 352.0210°
argument of perigee: 297.1079°
revolutions per day: 14.05528085
mean anomaly at epoch: 56.1729°
orbit number at epoch: 41669

The dashed part of the orbit path shows where the satellite is in the earth's shadow,  

DLR